This demonstration page uses our WeatherBlox Daily Observations layout. Learn more.

Left ArrowRight Arrow

39.01783, -85.05884

Hourly Observations for February 1, 2017

Temp ( °F °C ) Dew Point ( °F °C ) Humidity (%) Winds ( mph kmh ) Pressure ( in mb ) Visibility ( mi km ) Precip ( " mm )
12:52 am 00:52 Cloudy 41 5 30 -1.1 65 65 W 9 15 30.01 1016 10 16 0.00 0.00
1:52 am 01:52 Cloudy 42 5.6 30 -1.1 62 62 W 15 24 30.00 1016 10 16 0.00 0.00
2:52 am 02:52 Cloudy 41 5 29 -1.7 62 62 WNW 15 24 29.97 1015 10 16 0.00 0.03
3:52 am 03:52 Cloudy 40 4.4 30 -1.1 68 68 NW 14 22 30.00 1016 10 16 0.00 0.00
4:52 am 04:52 Cloudy 40 4.4 30 -1.1 68 68 WNW 9 15 30.01 1016 10 16 0.00 0.00
5:52 am 05:52 Cloudy 39 3.9 30 -1.1 70 70 WNW 8 13 30.02 1017 10 16 0.00 0.00
6:52 am 06:52 Cloudy 38 3.3 30 -1.1 73 73 W 7 11 30.04 1017 10 16 0.00 0.00
7:52 am 07:52 Cloudy with Light Rain 38 3.3 30 -1.1 73 73 SW 3 6 30.06 1018 10 16 0.00 0.00
8:52 am 08:52 Cloudy 39 3.9 30 -1.1 70 70 SW 6 9 30.08 1019 10 16 0.00 0.03
9:52 am 09:52 Cloudy 39 3.9 31 -0.6 73 73 W 10 17 30.09 1019 10 16 0.00 0.00
10:52 am 10:52 Cloudy 40 4.4 31 -0.6 70 70 W 7 11 30.09 1019 10 16 0.00 0.00
11:52 am 11:52 Cloudy 41 5 31 -0.6 67 67 W 7 11 30.07 1018 10 16 0.00 0.00
12:52 pm 12:52 Cloudy 41 5 30 -1.1 65 65 SW 6 9 30.06 1018 10 16 0.00 0.00
1:52 pm 13:52 Cloudy 42 5.6 29 -1.7 60 60 W 6 9 30.05 1018 10 16 0.00 0.00
2:52 pm 14:52 Cloudy 43 6.1 27 -2.8 53 53 W 8 13 30.07 1018 10 16 0.00 0.00
3:52 pm 15:52 Cloudy 42 5.6 25 -3.9 51 51 NW 10 17 30.10 1019 10 16 0.00 0.00
4:52 pm 16:52 Cloudy 41 5 25 -3.9 53 53 WNW 10 17 30.12 1020 10 16 0.00 0.00
5:52 pm 17:52 Cloudy 40 4.4 25 -3.9 55 55 WSW 5 7 30.13 1020 10 16 0.00 0.00
6:52 pm 18:52 Cloudy 43 6 28 -2 57 57 W 10 17 29.97 1015 10 16 0.00 0.00
7:52 pm 19:52 Mostly Cloudy 36 2.2 25 -3.9 64 64 W 3 6 30.14 1021 10 16 0.00 0.00
8:52 pm 20:52 Mostly Cloudy 34 1.1 25 -3.9 70 70 NW 6 9 30.16 1022 10 16 0.00 0.00
9:52 pm 21:52 Mostly Cloudy 36 2.2 26 -3.3 67 67 WNW 8 13 30.17 1022 10 16 0.00 0.00
10:52 pm 22:52 Mostly Cloudy 37 2.8 26 -3.3 65 65 WNW 10 17 30.17 1022 10 16 0.00 0.00
11:52 pm 23:52 Mostly Cloudy 34 1.1 27 -2.8 76 76 VRB 7 11 30.18 1022 10 16 0.00 0.00

Powered by AerisWeather